GW5531 Weather Reports


time (UTC)temp
C
wind
direction
speed
KPH
gust
KPH
rain 1hr
cm
rain 24hr
cm
rain mn
cm
humidity
%
barometer
mb
20260503213128 18 286 0.0 0.0 0.00 0.00 0.00 28 1010.4
20260503212129 18 305 0.0 0.0 0.00 0.00 0.00 26 1010.5
20260503211129 18 296 0.0 0.0 0.00 0.00 0.00 27 1010.8
20260503210128 18 175 0.0 0.0 0.00 0.00 0.00 28 1010.8
20260503205129 17 293 0.0 0.0 0.00 0.00 0.00 28 1010.9
20260503204227 18 282 0.0 0.0 0.00 0.00 0.00 28 1011.1
20260503203227 18 35 0.0 0.0 0.00 0.00 0.00 28 1011.3
20260503203132 18 327 0.0 0.0 0.00 0.00 0.00 27 1011.2
20260503202128 18 308 0.0 0.0 0.00 0.00 0.00 27 1011.3
20260503201127 18 323 0.0 0.0 0.00 0.00 0.00 28 1011.4
20260503195130 18 306 0.0 0.0 0.00 0.00 0.00 28 1011.7
20260503194130 18 251 0.0 0.0 0.00 0.00 0.00 28 1011.6
20260503193227 18 309 0.0 0.0 0.00 0.00 0.00 28 1011.9
20260503192230 18 293 0.0 0.0 0.00 0.00 0.00 27 1011.9
20260503191327 18 311 0.0 0.0 0.00 0.00 0.00 26 1012.0
20260503190329 18 208 0.0 0.0 0.00 0.00 0.00 28 1012.0
20260503184328 17 275 0.0 0.0 0.00 0.00 0.00 26 1012.2
20260503183328 17 280 0.0 0.0 0.00 0.00 0.00 23 1012.3
20260503182329 17 321 0.0 0.0 0.00 0.00 0.00 25 1012.5
20260503181330 17 206 0.0 0.0 0.00 0.00 0.00 26 1012.5
20260503180328 17 108 0.0 0.0 0.00 0.00 0.00 28 1012.7
20260503175329 17 334 0.0 0.0 0.00 0.00 0.00 28 1012.8
20260503174330 17 275 0.0 0.0 0.00 0.00 0.00 30 1012.8
20260503173328 17 229 0.0 0.0 0.00 0.00 0.00 28 1012.7
20260503172327 17 179 0.0 0.0 0.00 0.00 0.00 27 1012.9
20260503171328 17 274 0.0 0.0 0.00 0.00 0.00 28 1013.0
20260503170328 16 222 0.0 0.0 0.00 0.00 0.00 29 1013.0
20260503150429 14 23 0.0 0.0 0.00 0.00 0.00 54 1013.1
20260503130527 11 337 0.0 0.0 0.00 0.00 0.00 81 1012.8
20260503100227 5 292 0.0 0.0 0.00 0.00 0.00 96 1011.9
20260503090428 5 292 0.0 0.0 0.00 0.00 0.00 92 1012.2
20260503081629 6 292 0.0 0.0 0.00 0.00 0.00 90 1012.5
20260503080630 6 292 0.0 0.0 0.00 0.00 0.00 90 1012.6
20260503072627 7 292 0.0 0.0 0.00 0.00 0.00 86 1013.0
20260503071629 7 292 0.0 0.0 0.00 0.00 0.00 85 1013.1
20260503070727 8 292 0.0 0.0 0.00 0.00 0.00 85 1013.2
20260503054927 8 247 0.0 0.0 0.00 0.00 0.00 86 1013.9
20260503053929 8 247 0.0 0.0 0.00 0.00 0.00 84 1014.0
20260503052929 8 247 0.0 0.0 0.00 0.00 0.00 86 1014.1
20260503052027 8 247 0.0 0.0 0.00 0.00 0.00 89 1014.3
20260503051028 8 247 0.0 0.0 0.00 0.00 0.00 90 1014.2
20260503050128 8 247 0.0 0.0 0.00 0.00 0.00 87 1014.3
20260503045212 8 180 0.0 0.0 0.00 0.00 0.00 85 1014.6
20260503044212 8 180 0.0 0.0 0.00 0.00 0.00 81 1014.8
20260503043214 8 180 0.0 0.0 0.00 0.00 0.00 83 1014.8
20260503041213 9 180 0.0 0.0 0.00 0.00 0.00 81 1015.0
20260503040215 9 180 0.0 0.0 0.00 0.00 0.00 78 1014.8
20260503035214 9 292 0.0 0.0 0.00 0.00 0.00 75 1015.3
20260503034213 10 292 0.0 0.0 0.00 0.00 0.00 73 1015.7
20260503033212 10 292 0.0 0.0 0.00 0.00 0.00 70 1015.7
20260503032312 10 292 0.0 0.0 0.00 0.00 0.00 68 1015.6
20260503031313 10 292 0.0 0.0 0.00 0.00 0.00 67 1015.7
20260503030311 11 292 0.0 0.0 0.00 0.00 0.00 65 1015.9
20260503025314 11 292 0.0 0.0 0.00 0.00 0.00 62 1016.3
20260503023313 12 173 0.0 0.0 0.00 0.00 0.00 57 1016.4
20260503022315 12 301 0.0 0.0 0.00 0.00 0.00 54 1016.3
20260503021313 12 302 0.0 0.0 0.00 0.00 0.00 52 1016.3
20260503015314 13 288 0.0 0.0 0.00 0.00 0.00 47 1016.1
20260503014314 13 294 0.0 0.0 0.00 0.00 0.00 46 1015.9
20260503013413 14 280 0.0 0.0 0.00 0.00 0.00 44 1015.9
20260503012413 14 303 0.0 0.0 0.00 0.00 0.00 43 1015.6
20260503011415 14 292 0.0 0.0 0.00 0.00 0.00 41 1015.7
20260503010512 15 309 0.0 0.0 0.00 0.00 0.00 40 1015.5
20260503005513 15 308 0.0 0.0 0.00 0.00 0.00 40 1015.5
20260503004513 15 297 0.0 0.0 0.00 0.00 0.00 42 1015.6
20260503003514 14 310 0.0 0.0 0.00 0.00 0.00 43 1015.5
20260503002515 14 292 0.0 0.0 0.00 0.00 0.00 45 1015.7
20260503001612 13 247 0.0 0.0 0.00 0.00 0.00 49 1015.5
20260503000711 13 247 0.0 0.0 0.00 0.00 0.00 50 1015.7
20260502235714 14 247 0.0 0.0 0.00 0.00 0.00 46 1015.7
20260502234811 14 247 0.0 0.0 0.00 0.00 0.00 45 1015.8
20260502233814 14 263 0.0 0.0 0.00 0.00 0.00 42 1015.9
20260502231812 15 275 0.0 0.0 0.00 0.00 0.00 38 1016.2
20260502230813 15 262 0.0 0.0 0.00 0.00 0.00 39 1016.3
20260502225812 15 248 0.0 0.0 0.00 0.00 0.00 39 1016.5
20260502224813 15 258 0.0 0.0 0.00 0.00 0.00 41 1016.4
20260502223912 15 283 0.0 0.0 0.00 0.00 0.00 40 1016.5
20260502222012 16 280 0.0 0.0 0.00 0.00 0.00 35 1016.7
20260502221014 15 302 0.0 0.0 0.00 0.00 0.00 36 1016.8
20260502220013 16 261 0.0 0.0 0.00 0.00 0.00 34 1016.8
20260502215014 16 283 0.0 0.0 0.00 0.00 0.00 34 1017.0
20260502214013 16 258 0.0 0.0 0.00 0.00 0.00 33 1017.1